ASTRA 4A

Last updated on Sun Oct 06 2024 00:02:38 GMT+0000 (Coordinated Universal Time)

1 32299U 07057A 24279.54176194 .00000043 00000+0 00000+0 0 9990 2 32299 0.0448 54.1693 0003047 143.8958 16.5135 1.00273757 45432
UTC large
Height (km)
Speed (km/s)
/
Latitude / Longitude
Inclination (degrees)
Orbital Period (minutes)
Azimuth
Elevation
Range (km)
Doppler Factor

Next 0 passes for location: London (51.5072 / 0.1276)

Sorry there are no passes over London.